This is the latest recevied weather packets stored in our database for station/object S54A-10. If no packets are shown the sender has not sent any weather packets the latest 10 day(s).
| Time | Temp. | Humidity | Pressure | Rain* | Wind** | Luminosity | Snow |
|---|---|---|---|---|---|---|---|
| 1777307381 | 29.44° C | 29% | 1018.3 hPa | - | - | - | - |
| 1777306481 | 30.56° C | 29% | 1018.3 hPa | - | - | - | - |
| 1777305581 | 30.56° C | 29% | 1018.4 hPa | - | - | - | - |
| 1777304681 | 31.11° C | 29% | 1018.3 hPa | - | - | - | - |
| 1777303781 | 30.56° C | 29% | 1018.5 hPa | - | - | - | - |
| 1777302881 | 29.44° C | 30% | 1018.8 hPa | - | - | - | - |
| 1777301981 | 26.67° C | 31% | 1018.9 hPa | - | - | - | - |
| 1777301081 | 25° C | 33% | 1019 hPa | - | - | - | - |
| 1777300181 | 24.44° C | 33% | 1019.2 hPa | - | - | - | - |
| 1777299281 | 25° C | 32% | 1019.3 hPa | - | - | - | - |
| 1777298381 | 25° C | 32% | 1019.6 hPa | - | - | - | - |
| 1777297480 | 23.89° C | 33% | 1019.7 hPa | - | - | - | - |
| 1777296580 | 22.78° C | 33% | 1020 hPa | - | - | - | - |
| 1777295680 | 23.33° C | 34% | 1020.2 hPa | - | - | - | - |
| 1777294780 | 23.33° C | 33% | 1020.4 hPa | - | - | - | - |
| 1777293880 | 22.78° C | 33% | 1020.5 hPa | - | - | - | - |
| 1777292980 | 22.22° C | 33% | 1020.7 hPa | - | - | - | - |
| 1777292080 | 22.78° C | 33% | 1020.9 hPa | - | - | - | - |
| 1777291180 | 21.67° C | 33% | 1021 hPa | - | - | - | - |
| 1777290280 | 22.22° C | 34% | 1021.3 hPa | - | - | - | - |
| 1777289380 | 21.11° C | 33% | 1021.4 hPa | - | - | - | - |
| 1777288480 | 21.67° C | 34% | 1021.6 hPa | - | - | - | - |
| 1777287580 | 21.11° C | 34% | 1021.8 hPa | - | - | - | - |
| 1777286679 | 19.44° C | 36% | 1021.9 hPa | - | - | - | - |
| 1777285779 | 18.89° C | 36% | 1022.1 hPa | - | - | - | - |
* Rain since midnight (hover to see other rain measurements)
** Current wind speed in m/s (hover to see current wind gust speed)